Location: ??????????
(31.2156°N, 29.9553°E)
Time: 08:20:15
(UTC+00:00)

USA 238 DEB - Pass Details

Date: 03 March 2021
Orbit: 995 x 1217 km, 63.4° (Epoch: 11 April)

Event Time Altitude Azimuth Distance (km) Brightness Sun altitude
Rises 17:45:18 0° 192° (SSW) 3,695 6.6 -23.3°
Reaches altitude 10° 17:47:55 10° 187° (S) 2,752 5.9 -23.8°
Enters shadow 17:53:22 48° 135° (SE) 1,292 3.8 -25.0°
